This is the latest recevied weather packets stored in our database for station/object N3EDS. If no packets are shown the sender has not sent any weather packets the latest 10 day(s).
| Time | Temp. | Humidity | Pressure | Rain* | Wind** | Luminosity | Snow |
|---|---|---|---|---|---|---|---|
| 1777882873 | 5.56° C | 79% | 1014.2 hPa | 0 mm | - | 0 W/m² | - |
| 1777882570 | 5.56° C | 76% | 1014 hPa | 0 mm | - | 0 W/m² | - |
| 1777882266 | 5° C | 71% | 1014 hPa | 0 mm | - | 0 W/m² | - |
| 1777881963 | 5° C | 74% | 1014.3 hPa | 0 mm | - | 0 W/m² | - |
| 1777881660 | 5° C | 78% | 1014.5 hPa | 0 mm | - | 0 W/m² | - |
| 1777881356 | 5° C | 77% | 1014.3 hPa | 0 mm | - | 0 W/m² | - |
| 1777881054 | 5° C | 76% | 1014.4 hPa | 0 mm | - | 0 W/m² | - |
| 1777880751 | 5° C | 74% | 1014.5 hPa | 0 mm | - | 0 W/m² | - |
| 1777880449 | 5° C | 76% | 1014.3 hPa | 0 mm | - | 0 W/m² | - |
| 1777880147 | 5° C | 79% | 1014.3 hPa | 0 mm | - | 0 W/m² | - |
| 1777879845 | 4.44° C | 77% | 1014.4 hPa | 0 mm | - | 0 W/m² | - |
| 1777879543 | 4.44° C | 81% | 1014.6 hPa | 0 mm | - | 0 W/m² | - |
| 1777879239 | 4.44° C | 80% | 1014.3 hPa | 0 mm | - | 0 W/m² | - |
| 1777878937 | 4.44° C | 81% | 1014.3 hPa | 0 mm | - | 0 W/m² | - |
| 1777878634 | 4.44° C | 84% | 1014.6 hPa | 0 mm | - | 0 W/m² | - |
| 1777878331 | 4.44° C | 81% | 1014.5 hPa | 0 mm | - | 0 W/m² | - |
| 1777878027 | 4.44° C | 78% | 1014.4 hPa | 0 mm | - | 0 W/m² | - |
| 1777877723 | 3.89° C | 81% | 1014.4 hPa | 0 mm | - | 0 W/m² | - |
| 1777877421 | 3.89° C | 78% | 1014.6 hPa | 0 mm | - | 0 W/m² | - |
| 1777877117 | 3.33° C | 82% | 1014.4 hPa | 0 mm | - | 0 W/m² | - |
| 1777876815 | 3.33° C | 82% | 1014.6 hPa | 0 mm | - | 0 W/m² | - |
| 1777876512 | 2.78° C | 82% | 1014.5 hPa | 0 mm | - | 0 W/m² | - |
| 1777876209 | 2.78° C | 83% | 1014.4 hPa | 0 mm | - | 0 W/m² | - |
| 1777875905 | 2.78° C | 81% | 1014.4 hPa | 0 mm | - | 0 W/m² | - |
| 1777875601 | 2.78° C | 80% | 1014.7 hPa | 0 mm | - | 0 W/m² | - |
* Rain latest hour (hover to see other rain measurements)
** Current wind speed in m/s (hover to see current wind gust speed)